Theta_e
307 308 309 309 309 309 309 310 310 310 310 310 309 307 307 305 303 304 307 308 312 310 312 317 319 326 326 324 324 322 328 329 326 326 325 323 326 324 324 324 322 322 321 322 325
306 306 306 307 307 308 308 308 309 309 310 311 311 309 308 306 306 311 308 308 310 310 310 324 326 325 323 324 325 326 328 328 324 323 325 324 327 326 326 327 323 322 320 322 324
308 308 308 306 306 306 306 307 307 308 309 310 310 310 310 307 308 305 310 310 311 309 309 317 325 325 326 324 325 326 330 328 326 324 326 327 327 327 327 328 327 324 324 322 322
307 309 308 308 307 306 306 306 307 308 308 308 309 309 310 307 303 310 313 315 319 311 311 323 325 325 325 326 326 328 327 327 327 325 325 327 327 329 328 328 326 324 323 322 321
306 307 307 307 307 307 307 306 305 306 307 307 307 309 310 310 306 311 316 306 315 318 313 317 324 324 324 323 325 325 327 326 326 325 326 326 327 328 328 327 326 325 322 319 321
305 305 306 306 306 307 306 307 306 305 304 306 307 309 309 311 308 307 304 305 306 313 318 313 316 321 321 321 324 323 325 325 324 325 325 327 327 327 328 328 326 324 322 319 321
305 305 305 306 306 306 306 306 306 306 306 305 307 308 309 309 309 306 306 307 307 307 316 315 314 314 314 316 314 316 318 316 318 319 320 323 324 326 325 324 321 321 321 319 320
304 304 305 305 306 306 306 306 306 306 307 308 307 307 308 308 308 309 309 308 308 308 308 315 316 314 314 313 314 317 316 317 317 319 319 321 323 323 323 322 322 321 320 319 317
304 304 304 304 305 306 304 305 304 306 307 307 306 306 307 308 309 308 309 309 309 308 306 309 315 314 313 315 315 313 316 315 316 317 319 322 321 322 321 321 321 321 320 320 318
304 304 304 304 304 304 304 304 304 307 306 306 306 307 307 305 309 307 307 309 307 304 305 307 312 313 311 313 317 315 315 315 315 317 318 318 319 320 320 320 320 320 320 319 319
305 304 304 304 304 304 305 303 303 307 308 307 306 307 306 309 309 309 306 308 307 306 305 308 312 315 312 314 315 314 313 313 314 317 318 318 319 320 320 319 318 319 319 319 319
304 304 304 304 304 304 304 301 305 304 307 306 306 308 308 308 310 309 307 306 307 307 307 312 311 312 314 314 315 316 314 314 316 320 319 319 319 319 319 319 318 320 320 319 318
304 303 304 304 303 304 303 303 304 304 306 308 307 307 307 308 310 309 310 307 308 306 308 308 310 312 315 317 316 316 317 317 317 319 319 319 319 320 320 319 318 318 318 317 317
304 304 303 303 304 303 303 303 304 305 309 307 309 308 308 307 309 307 310 309 307 307 307 308 309 312 316 318 318 317 317 317 319 320 319 319 323 320 319 321 319 319 317 317 318
304 303 303 303 304 303 303 304 304 305 307 302 307 308 310 308 308 309 308 310 312 306 308 308 309 311 314 318 319 319 319 319 319 319 318 319 320 321 319 320 320 319 318 316 316
302 303 303 303 303 303 303 304 304 308 308 305 307 306 307 311 311 311 310 309 312 308 307 308 309 310 313 317 319 317 317 316 316 316 319 318 320 320 320 321 321 320 319 321 319
302 302 304 305 302 304 303 303 306 307 306 308 307 307 308 310 310 312 311 310 312 314 312 309 308 310 312 314 315 314 313 315 317 318 320 319 320 319 319 319 320 320 319 320 320
302 302 302 303 303 304 303 304 307 305 306 306 306 305 307 309 308 311 313 313 309 312 313 312 312 308 312 312 315 317 315 315 318 321 323 319 323 322 320 319 319 319 318 319 321
302 302 302 303 304 303 303 305 303 307 305 306 305 307 307 307 306 310 310 315 314 310 312 313 313 312 311 313 314 314 316 314 317 318 320 320 320 320 320 321 321 321 320 320 321
302 301 301 304 304 304 303 303 304 305 304 304 305 306 307 305 307 308 310 314 313 312 310 312 313 312 311 312 314 312 313 315 314 318 322 320 321 322 322 321 323 323 320 320 321
301 298 304 305 304 306 302 303 303 303 304 305 306 307 305 306 308 308 311 313 311 311 312 311 311 315 312 312 312 311 311 312 313 313 318 320 321 318 320 320 322 321 319 320 322
298 298 304 304 304 301 301 304 304 305 305 305 306 306 306 308 310 308 309 308 308 310 310 311 311 312 313 312 312 312 311 313 314 316 316 319 320 319 318 317 320 320 320 319 321
300 298 301 303 303 304 303 304 305 305 305 305 305 304 304 307 307 308 308 309 306 308 310 311 314 313 313 314 312 312 312 312 311 313 316 318 319 319 321 320 319 320 320 321 321
300 299 298 300 301 304 304 303 305 304 304 304 303 302 304 307 307 309 308 307 308 309 312 308 310 315 315 313 313 313 313 312 311 311 315 319 319 320 325 321 319 321 320 321 322
295 297 300 303 301 302 303 302 303 305 305 304 304 304 306 307 308 310 310 311 308 310 311 306 309 313 312 315 316 316 314 313 312 313 314 315 317 317 318 322 320 320 320 322 323
298 302 301 301 303 303 300 302 304 304 305 308 308 306 305 307 308 309 309 309 309 309 310 309 310 310 313 317 317 317 314 313 313 313 313 316 316 315 317 323 323 322 323 324 324
301 301 302 302 302 302 302 303 303 303 304 306 306 305 306 305 306 305 305 306 309 309 310 311 309 309 311 312 316 316 315 314 315 313 313 316 316 318 323 325 323 323 323 324 324
Wind_Speed
15 16 17 18 18 18 19 20 21 22 22 22 23 22 23 23 23 17 11 17 9 23 10 9 9 10 9 3 3 3 2 6 8 6 8 2 2 2 2 3 3 5 5 6 7
19 19 19 18 19 19 19 19 20 20 20 20 20 21 23 22 22 12 39 26 21 21 14 14 9 12 4 5 4 5 6 11 11 8 7 2 2 5 3 8 6 8 7 11 10
18 18 18 19 18 19 20 21 20 19 18 20 21 20 21 18 5 10 17 18 23 34 25 16 16 9 6 4 7 7 13 20 10 14 1 6 8 2 5 13 13 9 13 4 8
20 19 19 19 20 21 20 20 20 20 19 18 19 20 21 5 9 1 15 15 6 27 21 15 8 10 6 11 7 4 12 20 18 10 5 11 6 14 13 19 16 14 10 5 9
21 22 22 21 21 21 21 21 20 19 19 18 17 15 10 4 9 10 11 15 14 13 21 14 12 9 10 7 10 8 12 9 12 10 11 9 13 16 20 25 14 14 10 12 11
23 23 23 23 23 23 24 25 24 22 19 16 15 12 8 19 10 21 26 23 18 7 6 7 8 8 6 7 8 7 13 16 8 18 19 19 16 10 23 18 16 14 14 12 12
23 24 24 24 25 25 25 26 26 27 22 17 14 12 14 26 15 11 12 17 7 16 8 19 15 7 6 2 6 4 6 8 10 12 9 10 12 19 28 10 11 15 15 13 13
25 26 26 25 25 26 27 28 29 28 24 19 11 11 11 10 20 25 28 39 31 17 9 18 23 6 4 2 3 3 3 3 4 5 6 11 11 21 16 10 18 16 13 11 12
25 26 28 27 26 26 30 31 33 24 15 10 6 7 13 12 11 26 32 18 17 20 18 7 9 7 3 7 7 2 11 10 7 8 4 8 10 17 4 5 11 13 13 12 13
25 26 27 25 25 27 30 33 15 7 9 6 5 4 7 5 11 10 13 31 8 7 5 6 5 6 6 8 17 6 5 6 9 2 4 9 13 19 21 9 12 12 12 12 12
25 26 26 25 24 23 26 13 4 2 2 4 6 9 16 12 17 7 5 13 10 6 11 7 8 22 23 17 6 5 12 16 5 3 7 10 8 15 18 7 11 14 15 14 13
26 25 24 24 24 25 15 1 3 4 10 11 19 22 34 24 12 14 14 7 8 15 12 6 29 22 13 17 17 12 13 16 8 3 6 10 13 16 15 16 9 17 19 15 5
27 26 24 24 26 6 6 9 4 13 5 9 11 9 9 16 16 23 8 6 7 13 24 25 26 15 17 13 16 17 20 16 10 5 5 7 12 14 12 9 8 11 12 9 10
26 24 24 23 8 11 9 1 17 7 4 8 4 7 6 7 9 29 11 8 6 18 18 18 21 20 12 20 16 19 16 15 11 3 6 5 6 10 9 16 7 11 9 9 6
25 24 22 15 11 5 5 14 16 3 5 2 3 4 3 7 8 9 35 11 10 10 10 13 18 21 23 24 20 13 10 9 8 7 2 3 4 6 5 10 14 11 11 9 4
25 26 22 13 6 13 11 16 2 2 8 4 6 13 9 4 13 7 11 14 6 6 9 11 7 23 10 12 16 7 5 4 3 1 8 13 7 4 6 10 6 5 4 3 6
28 27 20 13 4 3 11 2 2 4 6 5 9 15 15 15 9 5 9 20 10 11 13 5 14 2 7 6 7 7 8 1 3 0 5 6 7 13 10 9 9 11 7 4 3
30 24 14 8 7 4 3 2 6 4 4 12 12 14 9 16 12 23 4 8 18 2 9 8 5 17 6 10 9 16 10 6 5 3 5 7 8 7 13 13 10 10 4 8 7
28 16 6 10 2 7 2 2 3 4 4 10 13 6 4 11 5 11 6 7 2 16 4 6 6 4 14 7 20 8 10 10 2 1 1 4 7 7 6 7 3 1 5 8 8
18 7 7 10 7 3 2 3 3 5 7 5 5 4 7 12 7 10 9 13 11 10 3 4 2 5 14 6 19 11 11 7 6 6 4 5 5 5 3 7 3 4 7 6 7
6 3 8 6 2 1 1 4 4 8 6 4 3 4 9 12 4 3 6 12 21 22 10 7 1 2 10 13 13 5 6 3 7 5 5 1 6 7 9 7 8 9 9 9 11
6 3 2 5 2 1 1 3 7 7 6 7 4 8 10 8 5 2 5 6 18 17 10 3 3 3 13 7 20 17 10 7 8 10 4 4 5 4 9 6 6 8 8 7 6
4 3 3 1 3 2 4 4 4 5 6 3 5 4 7 6 5 8 2 2 9 15 13 8 4 2 2 3 3 21 20 11 5 4 16 4 5 3 5 4 6 8 8 8 7
2 4 3 3 0 3 5 6 4 6 9 4 4 5 4 5 7 6 6 2 4 10 15 11 3 5 8 2 5 5 16 18 9 3 4 10 3 5 4 7 6 6 6 9 8
3 2 1 4 4 8 6 4 5 6 5 5 4 1 5 3 6 3 7 5 2 7 6 6 4 3 14 12 8 0 9 20 17 21 11 4 7 6 8 9 6 7 8 11 10
2 2 3 4 7 7 4 3 4 6 4 4 3 9 7 4 5 8 9 5 1 1 1 3 4 6 4 6 14 10 11 10 24 20 18 3 11 8 4 5 6 10 11 12 12
2 3 2 4 4 3 2 4 9 12 8 6 8 12 11 11 3 9 10 11 6 2 1 2 3 6 4 7 4 11 22 12 5 12 15 11 22 4 5 8 10 10 12 14 14
Wind_Direction
341 339 337 335 333 328 317 321 324 326 328 332 335 333 328 323 309 299 253 240 257 236 246 161 156 167 196 193 140 112 130 239 240 186 245 237 335 292 137 241 325 227 229 252 302
349 343 338 335 334 329 326 324 321 320 320 323 324 329 327 330 317 248 263 252 242 244 218 159 155 156 171 195 191 170 191 223 216 208 247 219 145 321 322 300 263 280 263 268 207
346 344 344 339 331 329 328 327 323 321 319 316 321 325 326 333 299 251 282 256 238 240 230 192 163 144 167 167 203 198 225 231 265 241 4 286 297 201 278 285 279 275 293 265 180
343 339 339 336 336 334 329 325 324 322 315 313 319 324 325 326 242 120 81 39 261 225 195 173 149 152 192 205 189 217 234 237 249 253 271 265 306 284 287 268 269 279 259 227 197
339 338 336 334 331 328 327 326 322 317 317 312 310 319 333 269 242 220 249 319 26 166 190 179 167 156 178 217 208 230 240 245 254 273 257 263 256 265 279 276 276 271 272 236 216
340 337 334 330 328 326 324 322 321 320 311 307 306 303 268 253 250 259 273 293 274 252 211 212 198 181 188 214 183 193 237 254 265 260 263 269 275 275 269 272 278 275 269 255 217
337 337 334 331 327 324 320 319 315 311 307 297 297 288 254 247 255 247 288 274 278 243 204 212 247 197 165 289 218 214 233 263 241 250 251 262 270 255 266 281 264 267 267 267 228
336 335 333 329 326 325 322 316 312 304 297 285 284 286 257 287 274 263 247 261 260 251 248 234 222 247 211 265 26 192 178 242 241 206 249 162 267 269 269 264 265 269 270 257 247
334 334 332 331 328 326 326 317 316 310 294 258 249 230 273 271 257 256 243 228 253 229 235 255 196 192 148 227 283 256 254 250 292 230 240 177 277 267 270 245 266 268 266 264 262
331 332 331 329 328 329 326 323 333 52 75 125 226 268 263 250 313 259 252 213 203 146 141 200 207 191 183 173 216 203 236 235 235 260 227 258 258 277 277 249 256 267 269 261 261
330 329 328 327 328 328 327 339 20 355 28 224 206 248 298 296 341 311 196 160 212 154 177 183 198 218 207 208 206 206 229 242 248 202 243 244 256 265 281 250 266 272 271 272 270
332 330 328 326 327 323 316 33 359 339 296 260 249 245 250 266 285 288 175 139 186 196 155 168 227 219 196 204 208 211 237 248 264 197 228 271 273 273 278 272 248 268 276 268 241
333 331 330 329 326 344 338 288 327 352 269 277 232 241 229 225 227 257 237 177 173 184 190 200 225 199 195 194 205 214 221 236 238 307 262 311 291 279 280 277 256 251 249 266 237
329 327 331 330 336 335 298 356 328 321 299 272 216 251 193 222 246 230 212 193 191 191 195 229 223 194 191 207 194 222 215 236 253 255 255 132 284 290 300 296 278 283 292 271 249
327 325 325 322 289 280 288 322 328 171 318 246 177 150 255 187 308 235 206 239 202 169 166 213 178 199 204 204 193 224 178 211 225 231 208 240 278 266 267 279 281 271 270 268 233
327 324 322 319 278 267 293 321 128 110 245 319 28 340 329 226 257 292 172 225 180 184 246 213 201 196 176 189 197 169 143 80 31 141 258 255 204 245 231 233 261 266 262 318 134
328 322 307 269 249 180 308 342 123 202 339 26 339 336 329 355 1 342 232 196 186 188 207 167 232 196 161 174 164 131 98 258 335 243 225 192 187 244 252 235 233 256 271 110 186
332 328 326 279 270 254 275 69 226 286 308 351 340 319 347 14 338 339 265 223 241 243 167 173 202 199 177 183 171 184 161 155 199 214 249 161 203 245 224 231 239 246 196 141 176
337 336 346 352 317 179 96 190 246 328 24 336 342 335 350 4 10 343 320 355 300 238 252 162 234 166 185 164 180 176 201 175 63 173 312 224 276 305 227 261 280 63 156 154 165
334 333 341 345 137 172 91 243 272 332 331 323 309 299 325 343 348 348 310 29 348 343 277 244 168 189 203 147 187 174 145 178 194 195 230 274 271 225 221 227 292 217 192 166 154
344 25 6 90 2 37 233 267 297 286 327 314 313 310 305 314 325 20 299 317 4 348 349 0 106 255 137 198 172 153 167 145 164 159 164 298 262 221 224 216 226 215 175 181 163
2 34 9 327 22 27 279 274 313 289 286 280 263 246 251 294 326 266 259 287 349 341 343 306 321 217 211 161 195 198 174 158 189 196 207 157 267 221 229 243 221 210 157 146 173
345 293 353 11 33 315 296 284 261 290 289 325 305 289 308 293 306 232 266 217 322 336 354 334 304 148 47 320 139 203 203 199 117 107 210 177 252 318 323 271 222 196 156 143 157
14 345 329 34 265 309 322 301 286 279 286 258 260 283 281 274 299 287 276 242 358 329 334 336 283 272 218 206 134 160 207 210 193 158 185 213 187 261 280 264 242 169 153 137 151
27 305 249 320 325 322 309 284 291 329 316 306 298 242 324 301 308 346 15 321 82 45 348 3 273 290 309 291 286 152 185 201 205 215 208 187 234 225 245 242 241 154 133 142 158
32 338 323 281 286 320 321 277 328 337 307 313 290 313 311 272 260 287 295 310 333 112 329 290 283 345 300 270 272 264 263 229 204 208 227 182 252 212 250 128 178 160 161 168 176
306 282 278 278 297 296 271 308 307 313 283 226 299 311 301 294 325 287 267 262 216 199 136 261 302 3 305 340 267 263 238 234 218 221 202 197 234 146 201 219 198 170 179 180 182